Regional Weather Roundup
Issued by NWS

Home | Current Version | Previous Version | Text Only | Print | Product List | Glossary Off
Versions: 1 2 3 4 5 6 7 8 9 10 11 12 13 14 15 16 17 18 19 20 21 22 23 24 25 26 27 28 29 30 31 32 33 34 35 36 37 38 39 40 41 42 43 44 45 46 47 48 49 50

000
ASUS43 KFSD 242210
RWRSD

WEATHER ROUNDUP FOR SOUTH DAKOTA
NATIONAL WEATHER SERVICE SIOUX FALLS SD
500 PM CDT MON APR 24 2017

NOTE: "FAIR" INDICATES FEW OR NO CLOUDS BELOW 12,000 FEET WITH NO
SIGNIFICANT WEATHER AND/OR OBSTRUCTIONS TO VISIBILITY.


SDZ001>005-009-010-012>017-242300-
NORTHWEST AND NORTH CENTRAL SOUTH DAKOTA

CITY           SKY/WX    TMP DP  RH WIND       PRES   REMARKS
BUFFALO          N/A     53  41  63 N17       29.53F
FAITH            N/A     52  41  66 N13       29.60R
MOBRIDGE       CLOUDY    49  34  56 N16       29.58F
$$

SDZ012>016-024>037-041>051-057-063-072>074-242300-
SOUTHWEST AND SOUTH CENTRAL SOUTH DAKOTA

CITY           SKY/WX    TMP DP  RH WIND       PRES   REMARKS
RAPID CTY ARPT CLOUDY    59  40  49 N17       29.58F
PIERRE         MOSUNNY   53  39  59 NW9       29.58S
CUSTER         MOSUNNY   50  38  63 E14       29.60F
ELLSWORTH AFB  PTSUNNY   60  41  48 N17G23    29.57F
PHILIP         MOSUNNY   58  43  57 N14       29.58F
PINE RIDGE     MOSUNNY   63  42  46 MISG      29.56F
SPEARFISH      FAIR      57  37  47 NW8G14    29.60F
WINNER         FAIR      56  40  55 NW20      29.57F
$$

SDZ004>011-016>023-039-040-242300-
NORTHEAST SOUTH DAKOTA

CITY           SKY/WX    TMP DP  RH WIND       PRES   REMARKS
ABERDEEN       CLOUDY    49  35  58 N16G23    29.56R
WATERTOWN      CLOUDY    58  45  62 NW17      29.49R
BROOKINGS      CLOUDY    66  41  40 SW20      29.48F
SISSETON         N/A     49  46  90 N17       29.50R
$$

SDZ017-020-022-023-036>040-048>070-242300-
SOUTHEAST SOUTH DAKOTA

CITY           SKY/WX    TMP DP  RH WIND       PRES   REMARKS
SIOUX FALLS    PTSUNNY   67  46  47 S9        29.49F
HURON          PTSUNNY   55  42  61 NW13      29.53S
CHAMBERLAIN    CLOUDY    53  41  65 NW15      29.57F
MITCHELL       CLOUDY    61  42  49 W16       29.53R
YANKTON        CLOUDY    70  41  35 SW12      29.48S
$$

ABBREVIATIONS USED IN REMARKS
   TC - TEMPERATURE IN CELSIUS
  WCI - WIND CHILL INDEX
   HX - HEAT INDEX
  VSB - VISIBILITY





USA.gov is the U.S. government's official web portal to all federal, state and local government web resources and services.